Météo par heure à Alindao

Ce jour, 15 Mai, Samedi

Heure Température Précipitation Vent Pression Humidité
00:00 +24°C° 0 mm 1 m/s 719 mmHg 88%
01:00 +23°C° 0 mm 1 m/s 719 mmHg 91%
02:00 +23°C° 0.2 mm 1 m/s 719 mmHg 92%
03:00 +23°C° 0.2 mm 1 m/s 719 mmHg 94%
04:00 +23°C° 0.2 mm 1 m/s 719 mmHg 95%
05:00 +23°C° 0 mm 1 m/s 719 mmHg 93%
06:00 +24°C° 0 mm 1 m/s 720 mmHg 91%
07:00 +24°C° 0 mm 1 m/s 720 mmHg 95%
08:00 +25°C° 0 mm 1 m/s 720 mmHg 94%
09:00 +25°C° 0 mm 1 m/s 720 mmHg 93%
10:00 +25°C° 0 mm 1 m/s 721 mmHg 93%
11:00 +26°C° 0.3 mm 1 m/s 720 mmHg 87%
12:00 +27°C° 0.3 mm 1 m/s 720 mmHg 82%
13:00 +29°C° 0.3 mm 1 m/s 720 mmHg 76%
14:00 +28°C° 0.3 mm 2 m/s 719 mmHg 80%
15:00 +27°C° 0.3 mm 2 m/s 719 mmHg 83%
16:00 +26°C° 0.3 mm 2 m/s 719 mmHg 87%
17:00 +25°C° 0 mm 2 m/s 719 mmHg 90%
18:00 +24°C° 0 mm 1 m/s 719 mmHg 94%
19:00 +21°C° 0 mm 0 m/s 719 mmHg 97%
20:00 +21°C° 0 mm 0 m/s 719 mmHg 97%
21:00 +21°C° 0 mm 0 m/s 719 mmHg 97%
22:00 +21°C° 0 mm 0 m/s 720 mmHg 96%
23:00 +21°C° 0 mm 0 m/s 720 mmHg 96%

Demain, 16 Mai, Dimanche

Heure Température Précipitation Vent Pression Humidité
00:00 +21°C° 0 mm 0 m/s 719 mmHg 96%
01:00 +21°C° 0 mm 0 m/s 719 mmHg 95%
02:00 +20°C° 0 mm 0 m/s 719 mmHg 95%
03:00 +20°C° 0 mm 0 m/s 719 mmHg 95%
04:00 +20°C° 0 mm 0 m/s 719 mmHg 95%
05:00 +21°C° 0 mm 0 m/s 719 mmHg 92%
06:00 +24°C° 0 mm 1 m/s 720 mmHg 88%
07:00 +25°C° 0 mm 1 m/s 720 mmHg 84%
08:00 +28°C° 0 mm 1 m/s 720 mmHg 75%
09:00 +30°C° 0 mm 1 m/s 721 mmHg 65%
10:00 +32°C° 0 mm 1 m/s 721 mmHg 55%
11:00 +33°C° 0 mm 1 m/s 720 mmHg 52%
12:00 +34°C° 0 mm 1 m/s 719 mmHg 48%
13:00 +35°C° 0 mm 1 m/s 718 mmHg 45%
14:00 +35°C° 0 mm 1 m/s 718 mmHg 48%
15:00 +34°C° 0 mm 1 m/s 718 mmHg 51%
16:00 +34°C° 0 mm 1 m/s 717 mmHg 54%
17:00 +32°C° 0 mm 1 m/s 717 mmHg 60%
18:00 +30°C° 0 mm 1 m/s 717 mmHg 65%
19:00 +28°C° 0 mm 1 m/s 717 mmHg 71%
20:00 +27°C° 0.1 mm 1 m/s 718 mmHg 74%
21:00 +26°C° 0.1 mm 1 m/s 718 mmHg 77%
22:00 +26°C° 0.1 mm 1 m/s 719 mmHg 80%
23:00 +25°C° 1.2 mm 1 m/s 719 mmHg 85%

Après-demain, 17 Mai, Lundi

Heure Température Précipitation Vent Pression Humidité
00:00 +24°C° 1.2 mm 1 m/s 718 mmHg 89%
01:00 +22°C° 1.2 mm 0 m/s 718 mmHg 94%
02:00 +21°C° 1.7 mm 0 m/s 719 mmHg 95%
03:00 +21°C° 1.7 mm 0 m/s 719 mmHg 96%
04:00 +21°C° 1.7 mm 0 m/s 719 mmHg 98%
05:00 +21°C° 0.1 mm 0 m/s 719 mmHg 97%
06:00 +22°C° 0.1 mm 0 m/s 720 mmHg 96%
07:00 +24°C° 0.1 mm 1 m/s 720 mmHg 96%
08:00 +25°C° 0 mm 1 m/s 721 mmHg 94%
09:00 +25°C° 0 mm 1 m/s 721 mmHg 92%
10:00 +26°C° 0 mm 2 m/s 721 mmHg 91%
11:00 +27°C° 0 mm 1 m/s 721 mmHg 84%
12:00 +28°C° 0 mm 1 m/s 720 mmHg 78%
13:00 +29°C° 0 mm 1 m/s 719 mmHg 71%
14:00 +29°C° 0 mm 1 m/s 718 mmHg 74%
15:00 +28°C° 0 mm 1 m/s 718 mmHg 77%
16:00 +28°C° 0 mm 1 m/s 718 mmHg 80%
17:00 +25°C° 0.2 mm 0 m/s 718 mmHg 84%
18:00 +24°C° 0.2 mm 0 m/s 718 mmHg 89%
19:00 +23°C° 0.2 mm 0 m/s 718 mmHg 93%
20:00 +22°C° 0 mm 0 m/s 718 mmHg 94%
21:00 +22°C° 0 mm 0 m/s 719 mmHg 94%
22:00 +22°C° 0 mm 0 m/s 719 mmHg 94%
23:00 +22°C° 0.4 mm 0 m/s 719 mmHg 95%

18 Mai, Mardi

Heure Température Précipitation Vent Pression Humidité
00:00 +22°C° 0.4 mm 0 m/s 719 mmHg 95%
01:00 +21°C° 0.4 mm 0 m/s 719 mmHg 95%
02:00 +21°C° 0.1 mm 0 m/s 719 mmHg 96%
03:00 +23°C° 0.1 mm 1 m/s 719 mmHg 96%
04:00 +23°C° 0.1 mm 1 m/s 719 mmHg 97%
05:00 +24°C° 0.1 mm 1 m/s 720 mmHg 96%
06:00 +24°C° 0.1 mm 1 m/s 721 mmHg 96%
07:00 +25°C° 0.1 mm 1 m/s 721 mmHg 95%
08:00 +25°C° 0.1 mm 1 m/s 722 mmHg 91%
09:00 +26°C° 0.1 mm 2 m/s 722 mmHg 88%
10:00 +27°C° 0.1 mm 2 m/s 722 mmHg 84%
11:00 +28°C° 0.2 mm 2 m/s 722 mmHg 79%
12:00 +29°C° 0.2 mm 2 m/s 721 mmHg 75%
13:00 +30°C° 0.2 mm 2 m/s 720 mmHg 70%
14:00 +30°C° 0 mm 2 m/s 720 mmHg 69%
15:00 +30°C° 0 mm 1 m/s 720 mmHg 68%
16:00 +30°C° 0 mm 1 m/s 719 mmHg 67%
17:00 +28°C° 0.1 mm 1 m/s 719 mmHg 75%
18:00 +26°C° 0.1 mm 1 m/s 720 mmHg 84%
19:00 +25°C° 0.1 mm 1 m/s 720 mmHg 92%
20:00 +24°C° 0.2 mm 1 m/s 720 mmHg 93%
21:00 +24°C° 0.2 mm 1 m/s 720 mmHg 95%
22:00 +23°C° 0.2 mm 1 m/s 720 mmHg 96%
23:00 +23°C° 0 mm 1 m/s 720 mmHg 96%

19 Mai, Mercredi

Heure Température Précipitation Vent Pression Humidité
00:00 +23°C° 0 mm 1 m/s 720 mmHg 96%
01:00 +22°C° 0 mm 1 m/s 719 mmHg 96%
02:00 +22°C° 0 mm 1 m/s 719 mmHg 96%
03:00 +22°C° 0 mm 1 m/s 719 mmHg 95%
04:00 +22°C° 0 mm 1 m/s 719 mmHg 95%
05:00 +23°C° 0 mm 1 m/s 720 mmHg 93%
06:00 +23°C° 0 mm 1 m/s 720 mmHg 92%
07:00 +22°C° 0 mm 0 m/s 721 mmHg 91%
08:00 +23°C° 0 mm 0 m/s 721 mmHg 88%
09:00 +23°C° 0 mm 0 m/s 721 mmHg 85%
10:00 +24°C° 0 mm 0 m/s 722 mmHg 82%
11:00 +28°C° 0 mm 1 m/s 721 mmHg 74%
12:00 +29°C° 0 mm 1 m/s 721 mmHg 66%
13:00 +31°C° 0 mm 1 m/s 720 mmHg 58%
14:00 +31°C° 0 mm 1 m/s 720 mmHg 61%
15:00 +30°C° 0 mm 1 m/s 719 mmHg 63%
16:00 +30°C° 0 mm 1 m/s 719 mmHg 66%
17:00 +26°C° 0 mm 0 m/s 719 mmHg 70%
18:00 +25°C° 0 mm 0 m/s 719 mmHg 75%
19:00 +24°C° 0 mm 0 m/s 719 mmHg 79%
20:00 +23°C° 0 mm 0 m/s 719 mmHg 81%
21:00 +23°C° 0 mm 0 m/s 720 mmHg 83%
22:00 +22°C° 0 mm 0 m/s 720 mmHg 85%
23:00 +22°C° 0.4 mm 0 m/s 720 mmHg 89%

20 Mai, Jeudi

Heure Température Précipitation Vent Pression Humidité
00:00 +21°C° 0.4 mm 0 m/s 720 mmHg 92%
01:00 +21°C° 0.4 mm 0 m/s 720 mmHg 96%
02:00 +23°C° 0 mm 1 m/s 720 mmHg 96%
03:00 +23°C° 0 mm 1 m/s 720 mmHg 97%
04:00 +23°C° 0 mm 1 m/s 720 mmHg 97%
05:00 +24°C° 0 mm 1 m/s 720 mmHg 95%
06:00 +24°C° 0 mm 1 m/s 721 mmHg 93%
07:00 +25°C° 0 mm 2 m/s 721 mmHg 91%
08:00 +26°C° 0 mm 2 m/s 721 mmHg 85%
09:00 +27°C° 0 mm 2 m/s 721 mmHg 80%
10:00 +29°C° 0 mm 2 m/s 721 mmHg 74%
11:00 +30°C° 0 mm 2 m/s 721 mmHg 66%
12:00 +32°C° 0 mm 1 m/s 720 mmHg 58%
13:00 +34°C° 0 mm 1 m/s 720 mmHg 50%
14:00 +34°C° 0 mm 1 m/s 719 mmHg 54%
15:00 +33°C° 0 mm 1 m/s 719 mmHg 58%
16:00 +32°C° 0 mm 1 m/s 718 mmHg 62%
17:00 +30°C° 0.6 mm 1 m/s 719 mmHg 70%
18:00 +28°C° 0.6 mm 1 m/s 719 mmHg 78%
19:00 +25°C° 0.6 mm 1 m/s 719 mmHg 86%
20:00 +25°C° 0.1 mm 1 m/s 720 mmHg 85%
21:00 +25°C° 0.1 mm 1 m/s 720 mmHg 84%
22:00 +24°C° 0.1 mm 1 m/s 721 mmHg 83%
23:00 +24°C° 0.2 mm 1 m/s 720 mmHg 86%
Voir plus

Nous avons besoin de votre consentement

Meteoprog et ses fournisseurs de services peuvent stocker et accéder à des données personnelles telles que des cookies, des identifiants d'appareils ou d'autres technologies similaires sur votre appareil et traiter ces données pour personnaliser le contenu et les publicités, ainsi que pour fournir des fonctionnalités de médias sociaux et analyser le trafic.

  • Stocker et/ou accéder à des informations sur votre appareil

    Des cookies, des identifiants d'appareils ou d'autres informations peuvent être stockés ou accessibles sur votre appareil aux fins indiquées ci-dessus.

  • Annonces et contenus personnalisés, mesure des annonces et des contenus, connaissance de l'audience et développement de produits

    Les annonces et le contenu peuvent être personnalisés en fonction d'un profil. D'autres données peuvent être ajoutées pour mieux personnaliser les annonces et le contenu. Les performances des publicités et du contenu peuvent être mesurées. Il est possible d'obtenir des informations sur le public qui a vu les publicités et le contenu. Ces données peuvent être utilisées pour développer ou améliorer l'expérience de l'utilisateur, les systèmes et les logiciels.

En cliquant sur "J'accepte", vous autorisez l'utilisation de cookies, des identifiants d'appareils, des balises web ou d'autres technologies similaires. Vos paramètres peuvent être modifiés dans le navigateur de votre appareil.

Dans certains cas, des intérêts légitimes peuvent être invoqués plutôt qu'un consentement. Vous pouvez en savoir plus à ce sujet dans notre Politique de confidentialité et de cookies.